EFKS

Details ICAO EFKS (KAO)
Name Kuusamo
Region Finland
Timezone Europe/Helsinki (UTC+3.0)
Plans Departing 19
Arriving 20
Stats Elevation 866 ft / 264 m (AMSL)
Location 65.987404° 29.239798°
Runways 1
Magnetic Variation 12.969° E
Sunrise 2018-05-21 00:02:57 UTC / 2018-05-21 03:02:57 Local
Sunset 2018-05-21 19:59:09 UTC / 2018-05-21 22:59:09 Local
Advertisement - Login to hide

Runways

ID Width Length Bearing (true) Bearing (mag) Surface Threshold Offset Overrun Length
12 148 ft / 45 m 8,046 ft / 2,452 m 132.21° 119.24° Asphalt 131 ft / 40 m 197 ft / 60 m
30 148 ft / 45 m 8,046 ft / 2,452 m 312.25° 299.28° Asphalt 0 ft / 0 m 197 ft / 60 m

Approach Navaids

Runway Type Ident Frequency Range Bearing (true) Bearing (mag) Slope Elevation
12 Localiser KO 110.30 MHz 18 nm / 33 km 132.25° 119.28° - 866 ft / 264 m (AMSL)
12 Glidescope KO 110.30 MHz 10 nm / 19 km 132.23° 119.26° 3.00° 866 ft / 264 m (AMSL)
12 DME KO 110.30 MHz 18 nm / 33 km - - - 919 ft / 280 m (AMSL)

Map

Weather


0- 5 10 15 20 25 30 35+ Temperature / ° C

Clouds and Precipitation
Forecast for 2018-05-20 18:00 UTC. Updated 5 hours ago

Ground ~20,000 ft ~40,000 ft Winds

METAR

EFKS 202150Z AUTO 21006KT 170V240 CAVOK 11/03 Q1018

TAF

Not found

Frequencies

Tower 118.65 MHz AFIS
Tower 119.70 MHz AFIS
Warning: Do not use this data for real-world aviation or navigation. No guarantee of current accuracy is given.